Terminal Aerodrome Forecast
Issued by NWS

Home | Current Version | Previous Version | Text Only | Print | Product List | Glossary On
Versions: 1 2 3 4 5 6 7 8 9 10 11 12 13 14 15 16 17 18 19 20 21 22 23 24 25 26 27
000
FTUS46 KMFR 011735
TAFRBG
TAF
KRBG 011735Z 0118/0218 VRB02KT P6SM -SHRA SCT030 OVC050
     FM012100 VRB03KT P6SM -SHRA BKN035 OVC050
     FM020200 VRB02KT P6SM VCSH BKN025 OVC050
     FM021100 17005KT 5SM -RA BR OVC020=

USA.gov is the U.S. government's official web portal to all federal, state and local government web resources and services.